Starlink 1912

operational
NORAD ID: 47178 Int'l Des: 2020-088 Owner: SPXS Country: US Constellation: starlink
LEOCIRCULARSTARLINK_TYPE

About Starlink 1912

Description loading...

Live Position

Loading 3D Globe...

Upcoming Passes

Altitude History

Altitude vs Time

uPlot chart will show altitude changes over time

Two-Line Element Set

1 47178U 20088BJ 26035.42111428 .00104254 00000-0 19587-2 0 9992
2 47178 53.0533 81.5529 0004805 40.1537 319.9825 15.47780657286952
Epoch: Feb 4, 2026 • Age: 11 hours

Current Status

Altitude 425.3 km
Velocity 7.66 km/s
Sub-Earth Point -14.78°S, 20.13°W
Launch Date Nov 25, 2020
Age 5.1 years
Type internet

Technical Details

Classification Payload
Mass 260.00 kg
Dry Mass 248.00 kg
Total Mass 260.00 kg
Length 0.20 m
Diameter 2.80 m
Span 9.00 m
Shape Box + pan
Manufacturer SPXS
Bus Type Starlink
Phase Status In Orbit
Owner/State SPXS/US

Large Constellations

Loading constellations...